EHI
0 0 0 0 0 0 0 0 0 0 0 0 0 0 0 0 0 0 0 0 0 0 1 2 1 0 0 0 0 0 0 0 0 0 0 0 0 0 0 0 0 0 0
0 0 0 0 0 0 0 0 0 0 0 0 0 0 0 0 0 0 0 0 0 0 1 2 1 0 0 0 0 0 0 0 0 0 0 0 0 0 0 0 0 0 0
0 0 0 0 0 0 0 0 0 0 0 0 0 0 0 0 0 0 0 0 0 0 1 1 1 0 0 0 0 0 0 0 0 0 0 0 0 0 0 0 0 0 0
0 0 0 0 0 0 0 0 0 0 0 0 0 0 0 0 0 0 0 0 0 0 0 0 0 0 0 0 0 0 0 0 0 0 0 0 0 0 0 0 0 0 0
1 0 0 0 0 0 0 0 0 0 0 0 0 0 0 0 0 0 0 0 0 0 0 0 0 0 0 0 0 0 0 0 0 0 0 0 0 0 0 0 0 0 0
2 1 0 1 1 0 0 0 0 0 0 0 0 0 0 0 0 0 0 0 0 0 0 0 0 0 0 0 0 0 0 0 0 0 0 0 0 0 0 0 0 0 0
5 3 1 2 2 1 0 0 0 0 0 0 0 0 0 0 0 0 0 0 0 0 0 0 0 0 0 0 0 0 0 0 0 0 0 0 0 0 0 0 0 0 0
7 5 3 2 2 1 0 0 0 0 0 0 0 0 0 0 0 0 0 0 0 0 0 0 0 0 0 0 0 0 0 0 0 0 0 0 0 0 0 0 0 0 0
6 5 3 2 1 0 0 0 0 0 0 0 0 0 0 0 0 0 0 0 0 0 0 0 0 0 0 0 0 0 0 0 1 1 0 0 0 0 0 0 0 0 0
4 3 1 1 0 0 0 0 0 0 0 0 0 0 0 0 0 0 0 0 0 0 0 0 0 0 0 0 0 0 0 0 1 2 1 0 0 0 0 0 0 0 0
3 2 0 0 0 0 0 0 0 0 0 0 0 0 0 0 0 0 0 0 0 0 0 0 0 0 0 0 0 0 0 0 1 2 1 0 0 0 0 0 0 0 0
3 2 1 0 0 0 0 0 0 0 0 0 0 0 0 0 0 0 0 0 0 0 0 0 0 0 0 0 0 0 0 0 0 1 1 0 0 0 0 0 0 0 0
4 2 1 0 0 0 0 1 0 0 0 0 0 0 0 0 0 0 0 0 0 0 0 0 0 0 0 0 0 0 0 0 0 0 0 0 0 0 0 0 0 0 0
3 1 0 0 0 0 0 0 0 0 0 0 0 0 0 0 0 0 0 0 0 0 0 0 0 0 0 0 0 0 0 0 0 0 0 0 0 0 0 0 0 0 0
2 1 0 0 0 0 0 0 0 0 0 0 0 0 0 0 0 0 0 0 0 0 0 0 0 0 0 0 0 0 0 0 0 0 0 0 0 0 0 0 0 0 0
1 0 0 0 0 0 0 0 0 0 0 0 0 0 0 0 0 0 0 0 0 0 0 0 0 0 0 0 0 0 0 0 0 0 0 0 0 0 0 0 0 0 0
0 0 0 0 0 0 0 0 0 0 0 0 0 0 0 0 0 0 0 0 0 0 0 0 0 0 0 0 0 0 0 0 0 0 0 0 0 0 0 0 0 0 0
0 0 0 0 0 0 0 0 0 0 0 0 0 0 0 0 0 0 0 0 0 0 0 0 0 0 0 0 0 0 0 0 0 0 0 0 0 0 0 0 0 0 0
0 0 0 0 0 0 0 0 0 0 0 0 0 0 0 0 0 0 0 0 0 0 0 0 0 0 0 0 0 0 0 0 0 0 0 0 0 0 0 0 0 0 0
0 0 0 0 0 0 0 0 0 0 0 0 0 0 0 0 0 0 0 0 0 0 0 0 0 0 0 0 0 0 0 0 0 0 0 0 0 0 0 0 0 0 0
0 0 0 0 0 0 0 0 0 0 0 0 0 0 0 0 0 0 0 0 0 0 0 0 0 0 0 0 0 0 0 0 0 0 0 0 0 0 0 0 0 0 0
0 0 0 0 0 0 0 0 0 0 0 0 0 0 0 0 0 0 0 0 0 0 0 0 0 0 0 0 0 0 0 0 0 0 0 0 0 0 0 0 0 0 0
1 0 0 0 0 0 0 0 0 0 0 0 0 0 0 0 0 0 0 0 0 0 0 0 0 0 0 0 0 0 0 0 0 0 0 0 0 0 0 0 0 0 0
3 2 0 0 0 0 0 0 0 0 0 0 0 0 0 0 0 0 0 0 0 0 0 0 0 0 0 0 0 0 0 0 0 0 0 0 0 0 0 0 0 0 0
5 4 2 0 0 1 0 0 0 0 1 1 0 0 0 0 0 0 0 0 0 0 0 0 0 0 0 0 0 0 0 0 0 0 0 0 0 0 0 0 0 0 0
5 5 3 1 0 1 0 0 0 1 2 2 1 0 0 0 0 0 0 0 0 0 0 0 0 0 0 0 0 0 0 0 0 0 0 0 0 0 0 0 0 0 0
Wind_Speed
5 4 3 3 2 2 2 2 2 2 2 3 4 6 6 5 5 4 4 11 11 10 11 11 10 10 10 9 9 8 8 8 8 7 7 8 8 8 8 8 7 7 6
5 4 4 3 3 3 3 3 3 3 2 2 4 5 6 6 5 4 3 6 11 10 10 11 10 10 10 10 9 8 8 8 8 7 7 7 7 7 7 7 7 7 6
6 5 4 4 3 3 3 3 2 2 2 2 3 5 5 5 5 5 4 3 4 8 10 10 10 9 9 9 9 9 8 7 7 7 7 7 7 7 7 7 7 7 6
7 6 4 4 4 3 3 3 2 2 2 2 2 3 4 4 5 5 4 4 3 4 7 10 9 9 9 9 9 9 8 8 7 8 7 7 7 7 7 7 7 7 7
8 6 5 4 4 3 3 3 2 2 2 2 2 2 2 3 4 5 5 5 4 3 3 6 8 8 9 9 8 8 8 8 8 8 8 8 8 8 8 7 7 7 7
7 6 4 4 4 4 3 2 3 2 2 2 2 2 1 2 3 4 5 4 4 5 4 4 3 5 8 7 7 7 7 8 8 8 8 8 8 7 7 8 8 8 8
7 6 5 4 4 4 4 4 3 3 1 2 3 2 2 1 1 3 3 3 4 5 5 4 3 3 3 5 6 6 7 7 7 8 7 7 7 7 7 7 7 7 8
7 6 6 5 5 4 4 4 3 3 1 2 3 3 2 3 2 1 2 3 4 3 4 6 4 4 3 2 4 6 7 7 7 7 7 6 6 5 6 7 7 7 7
7 6 7 6 5 5 5 4 4 4 3 1 2 4 4 3 1 2 1 2 3 3 3 4 5 5 5 4 3 5 6 6 6 7 6 6 5 5 5 6 6 6 7
7 7 7 6 5 4 5 5 4 3 4 2 1 1 2 4 3 0 2 1 2 3 4 4 5 5 5 4 5 7 7 7 6 6 6 6 6 5 5 5 6 6 6
6 6 6 6 6 5 5 5 4 4 3 3 3 2 1 1 2 3 1 1 1 2 3 3 4 4 5 5 4 7 9 8 7 7 6 6 5 5 5 6 7 7 7
4 6 7 6 6 5 5 5 5 5 4 3 3 2 3 3 2 3 3 2 2 2 2 2 3 4 4 5 7 9 10 9 8 7 7 6 6 6 7 7 8 8 8
4 7 7 6 5 5 5 5 5 5 4 4 3 2 2 2 3 3 3 2 1 2 1 1 3 3 4 4 5 10 10 10 9 9 8 8 8 7 7 8 8 8 8
6 7 7 7 7 6 6 5 4 4 4 4 4 3 2 2 2 3 4 4 2 1 1 3 1 3 3 4 6 9 6 10 11 10 10 10 9 9 9 9 9 9 8
6 8 8 8 7 7 7 6 4 4 4 4 4 4 3 2 2 2 3 4 5 3 3 3 2 2 3 3 6 5 5 9 11 11 11 11 11 11 10 10 10 10 9
7 8 9 8 8 7 7 6 4 4 5 4 3 4 3 2 2 2 2 2 3 4 3 3 3 2 3 4 6 5 6 9 12 12 12 13 12 12 12 12 11 11 11
8 9 9 9 8 8 7 6 5 6 6 4 4 4 4 3 2 2 2 2 2 3 3 2 2 1 2 3 3 3 4 5 5 11 13 13 13 13 13 13 13 13 12
8 9 9 9 9 8 8 8 7 6 6 6 5 4 4 3 3 2 2 2 2 3 4 3 2 1 3 3 3 4 4 5 4 9 12 12 13 13 13 13 13 13 13
8 8 8 9 8 8 8 8 7 6 6 6 6 6 5 5 4 2 3 2 2 2 2 3 2 2 2 1 1 3 3 3 4 6 8 9 10 12 13 13 13 14 14
9 9 8 8 8 8 8 8 7 6 6 6 6 6 6 6 6 5 3 3 3 2 2 2 2 2 2 2 1 2 2 2 3 3 3 4 5 8 10 11 12 13 14
9 8 8 8 7 7 8 8 8 7 6 5 5 6 6 8 9 7 5 5 4 3 2 2 2 1 1 1 2 2 2 2 3 2 2 3 2 3 4 7 9 11 12
7 8 8 8 8 7 10 12 9 7 6 6 6 5 5 7 8 10 9 9 8 6 5 4 3 3 4 3 2 2 2 1 3 2 1 3 2 3 4 4 7 9 10
8 8 8 8 8 8 11 12 12 7 7 7 7 6 5 5 7 5 7 8 8 9 9 6 6 6 5 5 4 3 3 4 4 3 1 4 3 4 4 5 8 9 9
8 8 8 8 7 8 11 12 13 8 6 7 7 7 6 5 5 6 5 5 5 5 7 6 6 7 6 5 5 5 4 3 4 3 2 3 3 4 4 4 7 8 9
7 7 7 8 8 8 11 12 11 6 5 6 6 6 6 6 8 9 6 5 5 5 7 8 8 8 8 7 5 2 2 1 3 3 2 3 3 3 3 4 6 8 8
7 7 6 7 7 7 9 11 12 5 5 5 4 5 8 8 8 9 7 6 6 6 4 2 3 4 4 5 6 6 4 4 3 4 3 3 3 1 3 4 3 4 5
Wind_Direction
156 156 157 156 158 148 151 152 149 134 118 108 124 132 139 142 145 152 156 163 163 162 162 161 162 162 162 163 164 165 165 164 162 163 163 163 163 163 162 162 160 158 155
159 158 160 164 164 162 160 154 151 137 132 130 137 141 146 150 156 157 155 168 172 171 172 171 171 172 172 173 175 176 179 177 174 174 175 174 174 173 175 176 174 171 171
158 157 159 162 165 158 146 130 123 112 122 126 130 138 151 159 164 164 163 162 174 181 180 180 181 180 180 181 184 186 189 189 186 184 186 187 186 187 189 190 188 185 185
158 154 157 163 159 144 133 128 118 109 109 121 132 143 152 162 167 169 168 170 174 184 190 190 188 187 189 191 194 195 196 196 195 195 197 199 199 200 203 204 201 199 199
159 152 157 162 155 141 138 148 121 126 129 135 147 140 148 161 166 172 177 180 185 185 185 198 196 196 199 199 199 200 199 200 201 203 206 210 212 212 211 211 210 209 210
156 147 152 155 150 140 142 139 134 129 140 148 130 117 141 161 165 179 186 185 190 190 189 194 193 204 207 204 203 205 202 202 203 207 209 212 215 215 215 214 216 218 218
154 152 153 151 151 153 163 156 139 135 128 119 88 52 14 24 176 185 182 179 191 194 188 190 185 186 202 201 201 201 204 205 205 210 213 214 215 214 215 215 218 222 223
159 162 155 159 160 153 157 156 139 133 133 130 125 106 48 1 334 230 193 189 192 184 190 194 186 188 187 184 202 201 203 204 204 206 206 207 211 214 220 223 223 225 228
168 163 162 161 165 160 167 170 155 144 151 168 149 142 147 199 275 323 259 202 188 186 196 189 187 189 192 187 191 204 201 200 203 208 208 209 213 217 224 233 236 233 234
173 168 165 166 167 166 168 176 162 149 146 159 170 157 158 155 150 208 323 288 214 199 199 193 186 189 191 187 196 200 201 203 207 211 212 216 218 220 227 237 242 243 243
179 172 169 166 170 172 173 172 156 154 151 158 165 161 130 112 127 140 200 290 306 246 212 197 186 188 189 190 196 205 202 204 208 212 216 216 219 223 230 240 249 252 254
184 181 175 172 176 176 176 174 165 159 159 153 157 160 156 156 169 155 170 208 236 268 244 214 201 195 194 194 205 204 204 206 210 214 217 219 223 230 239 249 256 257 259
187 191 181 175 177 178 174 166 162 161 163 161 164 168 163 172 164 154 146 168 215 286 300 258 223 203 201 194 210 207 209 209 213 218 224 228 232 238 244 250 256 260 263
192 185 179 177 177 175 174 164 158 166 165 168 171 164 160 178 167 164 158 147 140 317 309 271 268 219 208 194 210 204 211 215 219 225 230 235 239 243 246 248 251 255 258
188 181 179 176 178 176 172 163 165 170 166 173 172 170 167 184 171 165 160 153 151 171 244 263 259 239 210 199 206 199 210 221 225 230 235 240 244 246 248 249 250 252 253
188 176 179 178 176 174 171 166 164 171 169 177 174 170 176 185 167 151 153 155 151 155 200 244 240 241 211 205 205 201 216 226 231 234 238 242 245 247 248 249 249 251 252
187 183 181 180 178 177 173 169 174 172 176 184 181 175 187 173 159 157 146 146 150 146 173 252 255 246 197 210 204 219 230 232 240 240 243 246 248 248 249 249 250 252 254
183 182 178 181 183 182 178 176 182 181 180 185 189 178 190 177 167 164 154 162 169 168 160 195 248 242 224 221 216 224 232 232 236 248 247 249 251 252 253 253 254 255 256
178 179 178 182 184 183 181 182 181 182 187 190 188 184 190 177 184 187 178 176 180 169 154 166 222 250 258 247 232 254 254 260 257 256 250 251 253 256 257 258 259 260 261
178 179 181 182 181 180 181 181 180 182 190 195 192 191 191 186 189 190 188 190 182 166 157 165 210 250 263 271 192 242 275 270 271 278 278 268 265 265 264 264 263 263 263
182 179 178 178 177 180 187 183 184 186 187 194 198 199 200 196 195 193 191 192 183 180 179 184 212 231 255 256 235 227 240 276 281 261 279 283 283 284 282 278 274 270 270
180 176 180 179 183 193 192 189 185 186 187 192 200 206 208 203 204 205 201 191 183 183 191 191 202 211 231 225 221 215 218 261 285 272 239 277 260 274 275 270 273 277 278
180 182 184 183 189 197 191 190 192 183 189 197 201 200 211 210 200 199 207 209 209 208 195 188 202 217 218 214 202 220 220 219 234 247 215 275 273 271 271 275 280 285 287
184 186 187 188 188 199 195 195 196 191 195 203 202 198 200 210 205 197 202 211 226 229 220 209 211 220 218 213 199 207 216 233 259 258 193 251 269 265 277 278 282 284 289
185 187 186 186 192 203 200 200 193 189 198 208 207 201 198 207 216 204 194 208 230 246 243 227 223 230 234 231 207 180 212 225 271 273 210 217 260 275 280 275 275 277 284
186 185 189 191 194 200 201 201 192 189 197 207 211 212 210 210 216 207 198 201 222 238 236 239 241 253 249 249 226 204 204 211 237 267 240 208 248 270 294 280 277 282 288